Location: *
(43.9900°N, 3.4811°E)
Time: 05:27:51
(UTC+00:00)

Thor Agena Rocket - Pass Details

Date: 25 August 2019
Orbit: 760 x 807 km, 99.0° (Epoch: 14 September)

Event Time Altitude Azimuth Distance (km) Brightness Sun altitude
Rises 21:29:10 0° 14° (NNE) 3,285 7.3 -26.9°
Reaches altitude 10° 21:31:29 10° 14° (NNE) 2,359 6.5 -27.2°
Enters shadow 21:36:29 83° 354° (N) 808 3.5 -27.8°
